INTELSAT 33E DEB, 64406

Orbit data source: Space-Track

INTELSAT 33E DEB, 64406 is space debris in GEO originally from a launch on Wed, 24 Aug 2016 UTC launched from the French Guiana (FRGUI). Debris objects in space refer to the collection of defunct objects orbiting the Earth. Examples of debris include non-operational satellites, rocket bodies, and fragments generated from explosions, collisions, or faulty payload assembly.

Not visible in the next 10 days
Identifier
64406, 2016-053AL
Orbit
GEO
Country
Flag of USUS / ITSO
Related business
Manufacturer
Boeing/ES
Mission
Spacecraft
Bus & Motor
Unknown
Mass
Unknown
Launch date (UTC)
2016-08-24 (10 years ago)
Launch vehicle
Unknown
Launch site
French Guiana (FRGUI)
Object type
Payload
Rocket body
Debris
Shape & HBR
Unknown shape, 1.1 m
Radar Cross Section
RCS unknown

Expand to show TLE details & history
Last TLE update: 1 day ago

TLE from 1 day ago
0 INTELSAT 33E DEB
1 64406U 16053AL  26120.14996612 -.00000323  00000-0  00000+0 0  9992
2 64406   1.3484  69.6132 0129886  43.8072 317.1287  0.98890755  5361
Epoch: 2026-04-30T03:35Z
TLE epoch observation values (Epoch: 2026-04-30T03:35:57.072Z)
Latitude
-0.00002°
Longitude
157.44292°
Altitude
35,777.105 km
Speed
3.089 km/s
True Right ascension
04h 38m 07s
True Declination
0° 00' 00"
Sunlit
Object was in daylight at epoch
Visualization orbit readout
Latitude
Unknown
Longitude
Unknown
Altitude
Unknown
Speed
Unknown
Apparent Right ascension
Unknown
Apparent Declination
Unknown
Sunlit
N/A
Visualization observer readout
Local Sidereal Time
23:05:03
Azimuth
Unknown
Elevation
Unknown
Doppler factor
Unknown
Orbital elements
Apogee altitude
36,732.068 km
Perigee altitude
35,626.545 km
Semi-major axis
42,557.444 km
Eccentricity
0.01299
Inclination
1.3484°
RAAN
69.6132°
Arg. of periapsis
43.8072°
True anomaly
316.10394°
Mean anomaly
317.1287°
Eccentric anomaly
316.61754°
Mean motion
0.24722 °/min
Orbital period
1,456.21 mins
BSTAR
0
Loading maneuver chart data...
Computing Atmospheric mass density...
Loading historical data...
Loading historical data...
Loading historical data...
Loading historical data...
Loading historical data...
Loading historical data...
Loading historical data...

Documentation

Showing up to 5 results
|